Time,TemperatureF,DewpointF,PressureIn,WindDirection,WindDirectionDegrees,WindSpeedMPH,WindSpeedGustMPH,Humidity,HourlyPrecipIn,Conditions,Clouds,dailyrainin,SoftwareType,DateUTC
2013-06-01 00:00:00,31.8,15.7,-100.00,NE,45,0.0,0.0,51,0.00,n/a,n/a,-99.99,Henriksen +1-Wire,2013-06-01 04:00:00,
2013-06-01 00:10:00,31.8,15.7,-100.00,NE,45,0.0,0.0,51,0.00,n/a,n/a,-99.99,Henriksen +1-Wire,2013-06-01 04:10:00,
2013-06-01 00:20:00,31.8,15.7,-100.00,NE,45,0.0,0.0,51,0.00,n/a,n/a,-99.99,Henriksen +1-Wire,2013-06-01 04:20:00,
2013-06-01 00:30:00,31.8,15.7,-100.00,NE,45,0.0,0.0,51,0.00,n/a,n/a,-99.99,Henriksen +1-Wire,2013-06-01 04:30:00,
2013-06-01 00:40:00,31.8,15.7,-100.00,NE,45,0.0,0.0,51,0.00,n/a,n/a,-99.99,Henriksen +1-Wire,2013-06-01 04:40:00,
2013-06-01 00:50:00,31.8,15.7,-100.00,NE,45,0.0,0.0,51,0.00,n/a,n/a,-99.99,Henriksen +1-Wire,2013-06-01 04:50:00,
2013-06-01 01:00:00,31.8,15.7,-100.00,NE,45,0.0,0.0,51,0.00,n/a,n/a,-99.99,Henriksen +1-Wire,2013-06-01 05:00:00,
2013-06-01 03:10:00,31.8,15.7,-100.00,NE,45,0.0,0.0,51,0.00,n/a,n/a,-99.99,Henriksen +1-Wire,2013-06-01 07:10:00,
2013-06-01 03:20:00,31.8,15.7,-100.00,NE,45,0.0,0.0,51,0.00,n/a,n/a,-99.99,Henriksen +1-Wire,2013-06-01 07:20:00,
2013-06-01 03:30:00,31.8,15.7,-100.00,NE,45,0.0,0.0,51,0.00,n/a,n/a,-99.99,Henriksen +1-Wire,2013-06-01 07:30:00,
2013-06-01 03:40:00,31.8,15.7,-100.00,NE,45,0.0,0.0,51,0.00,n/a,n/a,-99.99,Henriksen +1-Wire,2013-06-01 07:40:00,
2013-06-01 03:50:00,31.8,15.7,-100.00,West,277,0.0,0.0,51,0.00,n/a,n/a,-99.99,Henriksen +1-Wire,2013-06-01 07:50:00,
2013-06-01 04:00:00,31.8,15.7,-100.00,NE,45,0.0,0.0,51,0.00,n/a,n/a,-99.99,Henriksen +1-Wire,2013-06-01 08:00:00,
2013-06-01 04:10:00,31.8,15.7,-100.00,NE,45,0.0,1.0,51,0.00,n/a,n/a,-99.99,Henriksen +1-Wire,2013-06-01 08:10:00,
2013-06-01 04:20:00,31.8,15.7,-100.00,NE,45,0.0,0.0,51,0.00,n/a,n/a,-99.99,Henriksen +1-Wire,2013-06-01 08:20:00,
2013-06-01 04:30:00,31.8,15.7,-100.00,NE,45,0.0,0.0,51,0.00,n/a,n/a,-99.99,Henriksen +1-Wire,2013-06-01 08:30:00,
2013-06-01 04:40:00,31.8,15.7,-100.00,NE,45,0.0,0.0,51,0.00,n/a,n/a,-99.99,Henriksen +1-Wire,2013-06-01 08:40:00,
2013-06-01 04:50:00,31.8,15.7,-100.00,NE,45,0.0,0.0,51,0.00,n/a,n/a,-99.99,Henriksen +1-Wire,2013-06-01 08:50:00,
2013-06-01 05:00:00,31.8,15.7,-100.00,NE,45,0.0,0.0,51,0.00,n/a,n/a,-99.99,Henriksen +1-Wire,2013-06-01 09:00:00,
2013-06-01 05:10:00,31.8,15.7,-100.00,NE,45,0.0,0.0,51,0.00,n/a,n/a,-99.99,Henriksen +1-Wire,2013-06-01 09:10:00,
2013-06-01 05:20:00,31.8,15.7,-100.00,NE,45,0.0,0.0,51,0.00,n/a,n/a,-99.99,Henriksen +1-Wire,2013-06-01 09:20:00,
2013-06-01 05:30:00,31.8,15.7,-100.00,NE,45,0.0,0.0,51,0.00,n/a,n/a,-99.99,Henriksen +1-Wire,2013-06-01 09:30:00,
2013-06-01 05:40:00,31.8,15.7,-100.00,NE,45,0.0,0.0,51,0.00,n/a,n/a,-99.99,Henriksen +1-Wire,2013-06-01 09:40:00,
2013-06-01 05:50:00,31.8,15.7,-100.00,NE,45,0.0,0.0,51,0.00,n/a,n/a,-99.99,Henriksen +1-Wire,2013-06-01 09:50:00,
2013-06-01 06:00:00,31.8,15.7,-100.00,NE,45,0.0,0.0,51,0.00,n/a,n/a,-99.99,Henriksen +1-Wire,2013-06-01 10:00:00,
2013-06-01 06:10:00,31.8,15.7,-100.00,NE,45,0.0,0.0,51,0.00,n/a,n/a,-99.99,Henriksen +1-Wire,2013-06-01 10:10:00,
2013-06-01 06:20:00,31.8,15.7,-100.00,SSW,198,0.0,0.0,51,0.00,n/a,n/a,-99.99,Henriksen +1-Wire,2013-06-01 10:20:00,
2013-06-01 06:30:00,31.8,15.7,-100.00,NE,45,0.0,0.0,51,0.00,n/a,n/a,-99.99,Henriksen +1-Wire,2013-06-01 10:30:00,
2013-06-01 06:40:00,31.8,15.7,-100.00,SW,222,0.0,0.0,51,0.00,n/a,n/a,-99.99,Henriksen +1-Wire,2013-06-01 10:40:00,
2013-06-01 06:50:00,31.8,15.7,-100.00,SW,224,0.0,0.0,51,0.00,n/a,n/a,-99.99,Henriksen +1-Wire,2013-06-01 10:50:00,
2013-06-01 07:00:00,31.8,15.7,-100.00,SW,224,0.0,0.0,51,0.00,n/a,n/a,-99.99,Henriksen +1-Wire,2013-06-01 11:00:00,
2013-06-01 07:10:00,31.8,15.7,-100.00,SW,223,0.3,2.6,51,0.00,n/a,n/a,-99.99,Henriksen +1-Wire,2013-06-01 11:10:00,
2013-06-01 07:20:00,31.8,15.7,-100.00,SW,219,0.0,1.1,51,0.00,n/a,n/a,-99.99,Henriksen +1-Wire,2013-06-01 11:20:00,
2013-06-01 07:30:00,31.8,15.7,-100.00,SSW,196,0.0,2.9,51,0.00,n/a,n/a,-99.99,Henriksen +1-Wire,2013-06-01 11:30:00,
2013-06-01 07:40:00,31.8,15.7,-100.00,NE,45,0.0,1.0,51,0.00,n/a,n/a,-99.99,Henriksen +1-Wire,2013-06-01 11:40:00,
2013-06-01 07:50:00,31.8,15.7,-100.00,NE,45,0.1,3.9,51,0.00,n/a,n/a,-99.99,Henriksen +1-Wire,2013-06-01 11:50:00,
2013-06-01 08:00:00,31.8,15.7,-100.00,NE,45,0.0,1.0,51,0.00,n/a,n/a,-99.99,Henriksen +1-Wire,2013-06-01 12:00:00,
2013-06-01 08:10:00,31.8,15.7,-100.00,NE,45,0.0,1.0,51,0.00,n/a,n/a,-99.99,Henriksen +1-Wire,2013-06-01 12:10:00,
2013-06-01 08:20:00,31.8,15.7,-100.00,NE,45,0.5,3.9,51,0.00,n/a,n/a,-99.99,Henriksen +1-Wire,2013-06-01 12:20:00,
2013-06-01 08:30:00,31.8,15.7,-100.00,NE,45,0.5,4.8,51,0.00,n/a,n/a,-99.99,Henriksen +1-Wire,2013-06-01 12:30:00,
2013-06-01 08:40:00,31.8,15.7,-100.00,NE,45,0.1,1.9,51,0.00,n/a,n/a,-99.99,Henriksen +1-Wire,2013-06-01 12:40:00,
2013-06-01 08:50:00,31.8,15.7,-100.00,NE,45,0.0,3.9,51,0.00,n/a,n/a,-99.99,Henriksen +1-Wire,2013-06-01 12:50:00,
2013-06-01 09:00:00,31.8,15.7,-100.00,NE,45,0.0,1.9,51,0.00,n/a,n/a,-99.99,Henriksen +1-Wire,2013-06-01 13:00:00,
2013-06-01 09:10:00,31.8,15.7,-100.00,NE,45,0.0,2.0,51,0.00,n/a,n/a,-99.99,Henriksen +1-Wire,2013-06-01 13:10:00,
2013-06-01 09:20:00,31.8,15.7,-100.00,NE,45,0.1,3.8,51,0.00,n/a,n/a,-99.99,Henriksen +1-Wire,2013-06-01 13:20:00,
2013-06-01 09:30:00,31.8,15.7,-100.00,NE,45,0.1,5.8,51,0.00,n/a,n/a,-99.99,Henriksen +1-Wire,2013-06-01 13:30:00,
2013-06-01 09:40:00,31.8,15.7,-100.00,NE,45,0.4,5.8,51,0.00,n/a,n/a,-99.99,Henriksen +1-Wire,2013-06-01 13:40:00,
2013-06-01 09:50:00,31.8,15.7,-100.00,SW,223,0.0,1.1,51,0.00,n/a,n/a,-99.99,Henriksen +1-Wire,2013-06-01 13:50:00,
2013-06-01 10:00:00,31.8,15.7,-100.00,WSW,255,0.1,6.8,51,0.00,n/a,n/a,-99.99,Henriksen +1-Wire,2013-06-01 14:00:00,
2013-06-01 10:10:00,31.8,15.7,-100.00,East,83,0.1,1.9,51,0.00,n/a,n/a,-99.99,Henriksen +1-Wire,2013-06-01 14:10:00,
2013-06-01 10:20:00,31.8,15.7,-100.00,NE,45,0.1,1.0,51,0.00,n/a,n/a,-99.99,Henriksen +1-Wire,2013-06-01 14:20:00,
2013-06-01 10:30:00,31.8,15.7,-100.00,NE,45,0.4,2.9,51,0.00,n/a,n/a,-99.99,Henriksen +1-Wire,2013-06-01 14:30:00,
2013-06-01 10:40:00,31.8,15.7,-100.00,NE,45,0.0,1.0,51,0.00,n/a,n/a,-99.99,Henriksen +1-Wire,2013-06-01 14:40:00,
2013-06-01 10:50:00,31.8,15.7,-100.00,NE,45,0.2,2.0,51,0.00,n/a,n/a,-99.99,Henriksen +1-Wire,2013-06-01 14:50:00,
2013-06-01 11:00:00,31.8,15.7,-100.00,NE,45,0.1,1.0,51,0.00,n/a,n/a,-99.99,Henriksen +1-Wire,2013-06-01 15:00:00,
2013-06-01 11:10:00,31.8,15.7,-100.00,NE,45,0.2,2.0,51,0.00,n/a,n/a,-99.99,Henriksen +1-Wire,2013-06-01 15:10:00,
2013-06-01 11:20:00,31.8,15.7,-100.00,NE,45,0.3,3.9,51,0.00,n/a,n/a,-99.99,Henriksen +1-Wire,2013-06-01 15:20:00,
2013-06-01 11:30:00,31.8,15.7,-100.00,NE,45,0.2,1.9,51,0.00,n/a,n/a,-99.99,Henriksen +1-Wire,2013-06-01 15:30:00,
2013-06-01 11:40:00,31.8,15.7,-100.00,NE,45,0.1,2.9,51,0.00,n/a,n/a,-99.99,Henriksen +1-Wire,2013-06-01 15:40:00,
2013-06-01 11:50:00,31.8,15.7,-100.00,NE,45,0.0,2.9,51,0.00,n/a,n/a,-99.99,Henriksen +1-Wire,2013-06-01 15:50:00,
2013-06-01 12:00:00,31.8,15.7,-100.00,NE,45,0.3,2.0,51,0.00,n/a,n/a,-99.99,Henriksen +1-Wire,2013-06-01 16:00:00,
2013-06-01 12:10:00,31.8,15.7,-100.00,NE,45,0.0,2.9,51,0.00,n/a,n/a,-99.99,Henriksen +1-Wire,2013-06-01 16:10:00,
2013-06-01 12:20:00,31.8,15.7,-100.00,NE,45,0.4,2.9,51,0.00,n/a,n/a,-99.99,Henriksen +1-Wire,2013-06-01 16:20:00,
2013-06-01 12:30:00,31.8,15.7,-100.00,NE,45,0.0,2.9,51,0.00,n/a,n/a,-99.99,Henriksen +1-Wire,2013-06-01 16:30:00,
2013-06-01 12:40:00,31.8,15.7,-100.00,NE,45,0.0,2.9,51,0.00,n/a,n/a,-99.99,Henriksen +1-Wire,2013-06-01 16:40:00,
2013-06-01 12:50:00,31.8,15.7,-100.00,NE,45,0.2,8.6,51,0.00,n/a,n/a,-99.99,Henriksen +1-Wire,2013-06-01 16:50:00,
2013-06-01 13:00:00,31.8,15.7,-100.00,NE,45,1.1,4.8,51,0.00,n/a,n/a,-99.99,Henriksen +1-Wire,2013-06-01 17:00:00,
2013-06-01 13:10:00,31.8,15.7,-100.00,NE,45,0.4,4.9,51,0.00,n/a,n/a,-99.99,Henriksen +1-Wire,2013-06-01 17:10:00,
2013-06-01 13:20:00,31.8,15.7,-100.00,NE,45,0.3,5.7,51,0.00,n/a,n/a,-99.99,Henriksen +1-Wire,2013-06-01 17:20:00,
2013-06-01 13:30:00,31.8,15.7,-100.00,NE,45,0.2,4.3,51,0.00,n/a,n/a,-99.99,Henriksen +1-Wire,2013-06-01 17:30:00,
2013-06-01 13:40:00,31.8,15.7,-100.00,NE,45,0.4,4.9,51,0.00,n/a,n/a,-99.99,Henriksen +1-Wire,2013-06-01 17:40:00,
2013-06-01 13:50:00,31.8,15.7,-100.00,NE,45,1.5,6.8,51,0.00,n/a,n/a,-99.99,Henriksen +1-Wire,2013-06-01 17:50:00,
2013-06-01 14:00:00,31.8,15.7,-100.00,NE,45,0.0,7.8,51,0.00,n/a,n/a,-99.99,Henriksen +1-Wire,2013-06-01 18:00:00,
2013-06-01 14:10:00,31.8,15.7,-100.00,NE,45,0.2,7.8,51,0.00,n/a,n/a,-99.99,Henriksen +1-Wire,2013-06-01 18:10:00,
2013-06-01 14:20:00,31.8,15.7,-100.00,NE,45,0.1,4.8,51,0.00,n/a,n/a,-99.99,Henriksen +1-Wire,2013-06-01 18:20:00,
2013-06-01 14:30:00,31.8,15.7,-100.00,NE,45,0.3,10.6,51,0.00,n/a,n/a,-99.99,Henriksen +1-Wire,2013-06-01 18:30:00,
2013-06-01 14:40:00,31.8,15.7,-100.00,NE,45,0.6,6.7,51,0.00,n/a,n/a,-99.99,Henriksen +1-Wire,2013-06-01 18:40:00,
2013-06-01 14:50:00,31.8,15.7,-100.00,NE,45,0.1,6.7,51,0.00,n/a,n/a,-99.99,Henriksen +1-Wire,2013-06-01 18:50:00,
2013-06-01 15:00:00,31.8,15.7,-100.00,NE,45,0.6,2.9,51,0.00,n/a,n/a,-99.99,Henriksen +1-Wire,2013-06-01 19:00:00,
2013-06-01 15:10:00,31.8,15.7,-100.00,NE,45,0.1,3.5,51,0.00,n/a,n/a,-99.99,Henriksen +1-Wire,2013-06-01 19:10:00,
2013-06-01 15:20:00,31.8,15.7,-100.00,NE,45,0.1,8.7,51,0.00,n/a,n/a,-99.99,Henriksen +1-Wire,2013-06-01 19:20:00,
2013-06-01 15:30:00,31.8,15.7,-100.00,NE,45,0.2,4.9,51,0.00,n/a,n/a,-99.99,Henriksen +1-Wire,2013-06-01 19:30:00,
2013-06-01 15:40:00,31.8,15.7,-100.00,NE,45,0.2,2.9,51,0.00,n/a,n/a,-99.99,Henriksen +1-Wire,2013-06-01 19:40:00,
2013-06-01 15:50:00,31.8,15.7,-100.00,NE,45,0.4,5.8,51,0.00,n/a,n/a,-99.99,Henriksen +1-Wire,2013-06-01 19:50:00,
2013-06-01 16:00:00,31.8,15.7,-100.00,NE,45,0.2,3.9,51,0.00,n/a,n/a,-99.99,Henriksen +1-Wire,2013-06-01 20:00:00,
2013-06-01 16:10:00,31.8,15.7,-100.00,NE,45,0.4,3.9,51,0.00,n/a,n/a,-99.99,Henriksen +1-Wire,2013-06-01 20:10:00,
2013-06-01 16:20:00,31.8,15.7,-100.00,NE,45,0.0,3.5,51,0.00,n/a,n/a,-99.99,Henriksen +1-Wire,2013-06-01 20:20:00,
2013-06-01 16:30:00,31.8,15.7,-100.00,NE,45,2.8,7.8,51,0.00,n/a,n/a,-99.99,Henriksen +1-Wire,2013-06-01 20:30:00,
2013-06-01 16:40:00,31.8,15.7,-100.00,NE,45,0.1,4.9,51,0.00,n/a,n/a,-99.99,Henriksen +1-Wire,2013-06-01 20:40:00,
2013-06-01 16:50:00,31.8,15.7,-100.00,NE,45,0.3,2.9,51,0.00,n/a,n/a,-99.99,Henriksen +1-Wire,2013-06-01 20:50:00,
2013-06-01 17:00:00,31.8,15.7,-100.00,NE,45,0.3,3.9,51,0.00,n/a,n/a,-99.99,Henriksen +1-Wire,2013-06-01 21:00:00,
2013-06-01 17:10:00,31.8,15.7,-100.00,NE,45,0.3,3.9,51,0.00,n/a,n/a,-99.99,Henriksen +1-Wire,2013-06-01 21:10:00,
2013-06-01 17:20:00,31.8,15.7,-100.00,NE,45,0.1,1.9,51,0.00,n/a,n/a,-99.99,Henriksen +1-Wire,2013-06-01 21:20:00,
2013-06-01 17:30:00,31.8,15.7,-100.00,NE,45,0.0,2.9,51,0.00,n/a,n/a,-99.99,Henriksen +1-Wire,2013-06-01 21:30:00,
2013-06-01 17:40:00,31.8,15.7,-100.00,NE,45,0.0,1.0,51,0.00,n/a,n/a,-99.99,Henriksen +1-Wire,2013-06-01 21:40:00,
2013-06-01 17:50:00,31.8,15.7,-100.00,NE,45,0.3,5.2,51,0.00,n/a,n/a,-99.99,Henriksen +1-Wire,2013-06-01 21:50:00,
2013-06-01 18:00:00,31.8,15.7,-100.00,NE,45,0.0,3.8,51,0.00,n/a,n/a,-99.99,Henriksen +1-Wire,2013-06-01 22:00:00,
2013-06-01 18:10:00,31.8,15.7,-100.00,NE,45,0.2,6.8,51,0.00,n/a,n/a,-99.99,Henriksen +1-Wire,2013-06-01 22:10:00,
2013-06-01 18:20:00,31.8,15.7,-100.00,NE,45,0.0,1.0,51,0.00,n/a,n/a,-99.99,Henriksen +1-Wire,2013-06-01 22:20:00,
2013-06-01 18:30:00,31.8,15.7,-100.00,NE,45,1.0,3.9,51,0.00,n/a,n/a,-99.99,Henriksen +1-Wire,2013-06-01 22:30:00,
2013-06-01 18:40:00,31.8,15.7,-100.00,NE,45,0.3,6.7,51,0.00,n/a,n/a,-99.99,Henriksen +1-Wire,2013-06-01 22:40:00,
2013-06-01 18:50:00,31.8,15.7,-100.00,NE,45,0.1,2.9,51,0.00,n/a,n/a,-99.99,Henriksen +1-Wire,2013-06-01 22:50:00,
2013-06-01 19:00:00,31.8,15.7,-100.00,NE,45,0.0,1.0,51,0.00,n/a,n/a,-99.99,Henriksen +1-Wire,2013-06-01 23:00:00,
2013-06-01 21:10:00,31.8,15.7,-100.00,NE,45,0.0,0.0,51,0.00,n/a,n/a,-99.99,Henriksen +1-Wire,2013-06-02 01:10:00,
2013-06-01 21:20:00,31.8,15.7,-100.00,NE,45,0.0,0.0,51,0.00,n/a,n/a,-99.99,Henriksen +1-Wire,2013-06-02 01:20:00,
2013-06-01 21:30:00,31.8,15.7,-100.00,NE,45,0.0,0.0,51,0.00,n/a,n/a,-99.99,Henriksen +1-Wire,2013-06-02 01:30:00,
2013-06-01 21:40:00,31.8,15.7,-100.00,NE,45,0.0,0.0,51,0.00,n/a,n/a,-99.99,Henriksen +1-Wire,2013-06-02 01:40:00,
2013-06-01 21:50:00,31.8,15.7,-100.00,NE,45,0.0,0.0,51,0.00,n/a,n/a,-99.99,Henriksen +1-Wire,2013-06-02 01:50:00,
2013-06-01 22:00:00,31.8,15.7,-100.00,NE,45,0.0,0.0,51,0.00,n/a,n/a,-99.99,Henriksen +1-Wire,2013-06-02 02:00:00,
2013-06-01 22:10:00,31.8,15.7,-100.00,NE,45,0.0,0.0,51,0.00,n/a,n/a,-99.99,Henriksen +1-Wire,2013-06-02 02:10:00,
2013-06-01 22:20:00,31.8,15.7,-100.00,NE,45,0.0,1.0,51,0.00,n/a,n/a,-99.99,Henriksen +1-Wire,2013-06-02 02:20:00,
2013-06-01 22:30:00,31.8,15.7,-100.00,NE,45,0.0,0.0,51,0.00,n/a,n/a,-99.99,Henriksen +1-Wire,2013-06-02 02:30:00,
2013-06-01 22:40:00,31.8,15.7,-100.00,NE,45,0.0,1.0,51,0.00,n/a,n/a,-99.99,Henriksen +1-Wire,2013-06-02 02:40:00,
2013-06-01 22:50:00,31.8,15.7,-100.00,NE,45,0.0,0.0,51,0.00,n/a,n/a,-99.99,Henriksen +1-Wire,2013-06-02 02:50:00,
2013-06-01 23:00:00,31.8,15.7,-100.00,NE,45,0.0,1.9,51,0.00,n/a,n/a,-99.99,Henriksen +1-Wire,2013-06-02 03:00:00,
2013-06-01 23:10:00,31.8,15.7,-100.00,NE,45,0.0,0.0,51,0.00,n/a,n/a,-99.99,Henriksen +1-Wire,2013-06-02 03:10:00,
2013-06-01 23:20:00,31.8,15.7,-100.00,NE,45,0.0,1.0,51,0.00,n/a,n/a,-99.99,Henriksen +1-Wire,2013-06-02 03:20:00,
2013-06-01 23:30:00,31.8,15.7,-100.00,NE,45,0.0,1.9,51,0.00,n/a,n/a,-99.99,Henriksen +1-Wire,2013-06-02 03:30:00,
2013-06-01 23:40:00,31.8,15.7,-100.00,NE,45,0.0,1.0,51,0.00,n/a,n/a,-99.99,Henriksen +1-Wire,2013-06-02 03:40:00,
2013-06-01 23:50:00,31.8,15.7,-100.00,NE,45,0.0,1.0,51,0.00,n/a,n/a,-99.99,Henriksen +1-Wire,2013-06-02 03:50:00,